Regional Weather Roundup
Issued by NWS Albany, NY

Home | Current Version | Previous Version | Text Only | Print | Product List | Glossary On
Versions: 1 2 3 4 5 6 7 8 9 10 11 12 13 14 15 16 17 18 19 20 21 22 23 24 25 26 27 28 29 30 31 32 33 34 35 36 37 38 39 40 41 42 43 44 45 46 47 48 49
000
ASUS41 KALY 062310
RWRALY

NEW YORK STATE HOURLY WEATHER ROUNDUP
NATIONAL WEATHER SERVICE ALBANY NY
600 PM EST FRI MAR 06 2015

NOTE: "FAIR" INDICATES FEW OR NO CLOUDS BELOW 12,000 FEET WITH NO
SIGNIFICANT WEATHER AND/OR NO OBSTRUCTIONS TO VISIBILITY.

NYZ032-033-038>043-046>054-057>066-NYZ062>081-070000-
EAST


CITY           SKY/WX    TMP DP  RH WIND       PRES   REMARKS
ALBANY         MOCLDY    23   0  36 S6        30.35F WCI  16
GLENS FALLS    CLEAR     21  -2  36 S12       30.32S WCI   9
POUGHKEEPSIE   CLEAR     26  -6  24 CALM      30.37F
NEWBURGH       PTCLDY    25   0  33 CALM      30.36F
MONTGOMERY     CLEAR     23   2  40 SW6       30.34F WCI  16
WHITE PLAINS   CLEAR     22   4  46 S3        30.37F
ISLIP          PTCLDY    21   7  54 S7        30.41S WCI  12
NEW YORK CITY  PTCLDY    26   7  44 S8        30.42S WCI  18
CENTRAL PARK   CLEAR     25   5  42 W3        30.42F
$$

NYZ005>009-017-018-044>046-055-056-070000-
CENTRAL


CITY           SKY/WX    TMP DP  RH WIND       PRES   REMARKS
FULTON         MOCLDY    18   1  47 S6        30.31F WCI  10
SYRACUSE       MOCLDY    20   1  43 CALM      30.31F
ROME           PTCLDY    16   2  54 CALM      30.34F
ELMIRA         PTCLDY    25   1  35 S5        30.27F WCI  19
BINGHAMTON     PTCLDY    19  -4  36 SW5       30.23F WCI  12
MONTICELLO     CLEAR     19   0  42 SW5       30.28F WCI  13
$$

NYZ026>034-041>043-070000-
NORTH


CITY           SKY/WX    TMP DP  RH WIND       PRES   REMARKS
WATERTOWN      PTCLDY    17   3  54 SW7       30.30F WCI   8
FORT DRUM      NOT AVBL
MASSENA        CLEAR     17   1  49 SW17G26   30.27F WCI   1
SARANAC LAKE   CLEAR     16  -3  43 SW9       30.13F WCI   4
PLATTSBURGH    CLEAR     21  -1  38 S7        30.25F WCI  12
$$

NYZ001>004-010>016-019>021-070000-
WEST


CITY           SKY/WX    TMP DP  RH WIND       PRES   REMARKS
NIAGARA FALLS  CLOUDY    18   8  65 SW13      30.27F WCI   5
BUFFALO        CLOUDY    18  10  71 SW14      30.28F WCI   4
DUNKIRK        MOCLDY    18  11  74 SW10      30.30F WCI   6
JAMESTOWN      PTCLDY    19   0  42 SW13      30.22F WCI   7
WELLSVILLE     PTCLDY    21  -3  35 SW8       30.19F WCI  11
ROCHESTER      MOCLDY    22   0  38 S5        30.29F WCI  16
PENN YAN       PTCLDY    23  -2  33 CALM      30.26F
$$

             KEY
       WCI = WIND CHILL INDEX
       VSB = VISIBILITY
       HX  = HEAT INDEX
$$



USA.gov is the U.S. government's official web portal to all federal, state and local government web resources and services.